This demonstration page uses our WeatherBlox Daily Observations layout. Learn more.

Left ArrowRight Arrow

34.74481, -87.66753

Hourly Observations for May 24, 2021

Temp ( °F °C ) Dew Point ( °F °C ) Humidity (%) Winds ( mph kmh ) Pressure ( in mb ) Visibility ( mi km ) Precip ( " mm )
12:53 am 00:53 Clear 67 19.4 61 16.1 81 81 Calm 30.15 1021 10 16 0.00 0.00
1:53 am 01:53 Clear 67 19.4 60 15.6 79 79 Calm 30.14 1021 10 16 0.00 0.00
2:53 am 02:53 Clear 66 18.9 60 15.6 81 81 Calm 30.13 1020 9 14 0.00 0.00
3:53 am 03:53 Clear 65 18.3 59 15 81 81 Calm 30.13 1020 10 16 0.00 0.00
4:18 am 04:18 Clear with Mist and Fog 63 17.2 59 15 87 87 Calm 30.14 1021 1 2 0.00 0.00
4:26 am 04:26 Clear with Fog 63 17.2 59 15 87 87 Calm 30.14 1021 1 1 0.00 0.00
4:37 am 04:37 Hazy 65 18.3 59 15 81 81 Calm 30.14 1021 2 3 0.00 0.00
4:44 am 04:44 Hazy 65 18.3 60 15.6 84 84 Calm 30.14 1021 6 10 0.00 0.00
4:53 am 04:53 Clear 64 17.8 59 15 84 84 Calm 30.13 1020 8 13 0.00 0.00
5:02 am 05:02 Clear with Mist and Fog 63 17.2 59 15 87 87 Calm 30.15 1021 2 3 0.00 0.00
5:15 am 05:15 Clear with Mist and Fog 63 17.2 59 15 87 87 Calm 30.15 1021 3 5 0.00 0.00
5:53 am 05:53 Hazy 64 17.8 59 15 84 84 Calm 30.16 1021 3 5 0.00 0.00
5:55 am 05:55 Partly Cloudy with Mist and Fog 63 17.2 59 15 87 87 Calm 30.17 1022 2 3 0.00 0.00
6:00 am 06:00 Partly Cloudy with Fog 62 16.7 58 14.4 86 86 Calm 30.17 1022 0 0 0.00 0.00
6:12 am 06:12 Partly Cloudy with Mist and Fog 63 17.2 59 15 87 87 Calm 30.18 1022 1 2 0.00 0.00
6:16 am 06:16 Partly Cloudy with Mist and Fog 63 17.2 59 15 87 87 Calm 30.18 1022 4 6 0.00 0.00
6:53 am 06:53 Sunny 66 18.9 61 16.1 84 84 Calm 30.19 1022 7 11 0.00 0.00
7:53 am 07:53 Partly Cloudy 72 22.2 63 17.2 73 73 Calm 30.20 1023 8 13 0.00 0.00
8:53 am 08:53 Partly Cloudy 77 25 63 17.2 62 62 Calm 30.22 1023 10 16 0.00 0.00
9:53 am 09:53 Mostly Sunny 82 27.8 63 17.2 53 53 Calm 30.22 1023 10 16 0.00 0.00
10:53 am 10:53 Mostly Sunny 87 30.6 59 15 39 39 Calm 30.21 1023 10 16 0.00 0.00
11:53 am 11:53 Sunny 89 31.7 58 14.4 35 35 NNW 7 11 30.19 1022 10 16 0.00 0.00
12:53 pm 12:53 Partly Cloudy 89 31.7 56 13.3 33 33 W 3 6 30.16 1022 10 16 0.00 0.00
1:53 pm 13:53 Partly Cloudy 91 32.8 56 13.3 31 31 NW 6 9 30.14 1021 10 16 0.00 0.00
2:53 pm 14:53 Sunny 89 31.7 56 13.3 33 33 NW 5 7 30.13 1020 10 16 0.00 0.00
3:53 pm 15:53 Mostly Sunny 91 32.8 56 13.3 31 31 NW 6 9 30.11 1020 10 16 0.00 0.00
4:53 pm 16:53 Mostly Sunny 89 31.7 55 12.8 31 31 NNE 3 6 30.10 1019 10 16 0.00 0.00
5:53 pm 17:53 Sunny 87 30.6 62 16.7 43 43 Calm 30.10 1019 10 16 0.00 0.00
6:53 pm 18:53 Sunny 85 29.4 67 19.4 55 55 Calm 30.10 1019 10 16 0.00 0.00
7:53 pm 19:53 Sunny 80 26.7 64 17.8 58 58 Calm 30.10 1019 10 16 0.00 0.00
8:53 pm 20:53 Clear 75 23.9 63 17.2 66 66 Calm 30.11 1020 10 16 0.00 0.00
9:53 pm 21:53 Clear 72 22.2 63 17.2 73 73 ESE 3 6 30.13 1020 10 16 0.00 0.00
10:53 pm 22:53 Clear 72 22.2 63 17.2 73 73 Calm 30.13 1020 10 16 0.00 0.00
11:53 pm 23:53 Clear 70 21.1 63 17.2 79 79 Calm 30.13 1020 10 16 0.00 0.00

Powered by AerisWeather